Location: Rodson Ranch
(38.7188°N, 119.3202°W)
Time: 13:05:00
(UTC+00:00)

H-2A R/B - Pass Details

Date: 29 October 2020
Orbit: 500 x 540 km, 97.3° (Epoch: 28 November)

Event Time Altitude Azimuth Distance (km) Brightness Sun altitude
Rises 13:11:36 0° 19° (NNE) 2,655 6.5 -14.2°
Reaches altitude 10° 13:13:48 10° 27° (NNE) 1,769 5.7 -13.8°
Maximum altitude 13:17:25 40° 98° (E) 783 4.2 -13.1°
Drops below altitude 10° 13:21:03 10° 170° (S) 1,777 5.7 -12.4°
Sets 13:23:15 0° 177° (S) 2,668 6.5 -11.9°
